www.pogodaiklimat.ru

Погода и климат >> Архив погоды >> Россия >> Орловская область >> Мценск


ПОГОДА в Мценске

  • Прогноз погоды в Мценске
  • Монитор погоды в Мценске

АРХИВ ПОГОДЫ в Мценске

Время (UTC), дата Ветер
(напр.,м/с)
 
Видим.   Явления Облачность Т
(С)
Тd
(С)
f
(%)
Тe
(С)
Тes
(С)
Комфортность P
(гПа)
Po
(гПа)
Тmin
(С)
Tmax
(С)
R
(мм)
R24
(мм)
S
(см)
03 15.09 З 1 15 км 6/6 600 м
[Cb calv]
+6.9 +4.6 85 +6 +6 1019.8 995.5 +6.6
06 15.09 З 3 20 км ясно +9.8 +5.6 75 +8 +10 1020.0 995.9 +6.2
09 15.09 З 3 30 км 8/8 600 м
[Cb calv]
+14.6 +3.7 48 +14 +15 1019.0 995.3
12 15.09 З 3 35 км 8/4 600 м
[Sc Ac trans Ci fib]
+16.5 +2.3 38 +16 +18 1016.7 993.2
15 15.09 ЮЗ 1 30 км 8/0
[Ac trans Cs]
+14.8 +2.5 43 +16 +16 1014.6 991.0
18 15.09 ЮЗ 1 10 км 10/0
[Ac trans Ci fib]
+13.7 +2.8 48 +14 +14 1012.9 989.3 +17.0
21 15.09 ЮЗ 2 10 км 10/3 600 м
[Sc Ac und]
+13.3 +3.3 51 +13 +13 1010.2 986.6
00 16.09 ЮЗ 2 10 км 10/0
[Ac und]
+12.8 +3.9 55 +12 +12 1007.4 983.9
03 16.09 З 2 10 км {ливн. осадки} 10/10 600 м
[Cb calv]
+12.3 +4.3 58 +12 +12 1005.5 982.0 +11.1 0.0
06 16.09 ЮЗ 2 7000 м слаб. ливневой дождь 10/10 600 м
[Cb cap]
+9.7 +8.8 94 +8 +8 1004.9 981.2 +9.6 2
09 16.09 З 3 24 км слаб. ливневой дождь 10/10 600 м
[Cb cap]
+14.2 +10.2 77 +13 +13 1003.3 980.0
12 16.09 З 3
{11}
29 км {ливн. осадки} 9/9 600 м
[Cb calv]
+14.9 +8.8 67 +14 +15 1003.0 979.7
15 16.09 З 3
{11}
30 км 9/5 600 м
[Cb calv Ac trans]
+16.0 +5.0 48 +16 +16 1003.0 979.8 0.7
18 16.09 З 1 10 км 3/0
[Ac trans]
+12.2 +4.6 60 +12 +12 1004.0 980.5 +17.3 0.7
21 16.09 ЮЗ 1 10 км 5/0
[Ac trans]
+11.1 +5.0 66 +11 +11 1003.4 979.8
00 17.09 ЮЗ 1 10 км 4/0
[Ac trans]
+9.3 +5.0 74 +9 +9 1002.5 978.8
03 17.09 ЮЗ 1 19 км ясно +7.2 +4.6 84 +6 +6 1002.3 978.4 +7.2
06 17.09 З 3 22 км 6/3 600 м
[Cb calv Ac trans]
+10.5 +6.0 74 +9 +10 1002.4 978.8 +7.2
09 17.09 З 4
{11}
30 км 8/6 600 м
[Cb calv Ac trans]
+13.6 +4.1 53 +12 +14 1002.1 978.7
12 17.09 З 4
{11}
35 км 3/3 1000 м
[Cu hum]
+15.3 +2.7 43 +14 +17 1001.4 978.2
15 17.09 З 1
{11}
30 км 3/3 600 м
[Sc]
+12.6 +3.2 53 +13 +13 1002.1 978.6
18 17.09 ЮЗ 1 10 км 3/0
[Ac trans]
+8.1 +3.5 73 +8 +8 1003.2 979.3 +15.6
21 17.09 ЮЗ 1 10 км 3/0
[Ac trans]
+6.5 +2.4 75 +6 +6 1003.0 979.0
00 18.09 ЮЗ 1 10 км 10/0
[Ac und]
+6.5 +2.7 77 +6 +6 1001.7 977.7
03 18.09 ЮЗ 1 20 км 10/6 600 м
[Sc Ac und]
+6.8 +2.8 76 +6 +6 1000.6 976.7 +6.0
06 18.09 штиль 0 9000 м слаб. ливневой дождь 10/10 600 м
[Cb cap]
+7.4 +6.4 93 +6 +6 999.3 975.5 +6.0 0.4
09 18.09 ЮВ 1 14 км {ливн. осадки} 9/9 600 м
[Cb calv]
+9.7 +7.4 86 +9 +10 997.9 974.3
12 18.09 ЮЗ 1 22 км {ливн. осадки} 10/8 600 м
[Cb calv Ac und]
+11.6 +7.0 73 +12 +12 996.1 972.8
15 18.09 З 2
{11}
9000 м слаб. ливневой дождь 10/10 600 м
[Cb cap]
+6.2 +5.3 94 +4 +4 997.8 973.9 11
18 18.09 З 2 4000 м дымка {ливн. осадки} 10/10 600 м
[Cb calv]
+6.7 +6.1 96 +4 +4 999.0 975.1 +12.5 16
21 18.09 СЗ 3 4000 м дымка 10/10 600 м
[Cb calv]
+7.8 +7.1 95 +5 +5 1001.8 977.9
00 19.09 З 2 4000 м дымка 10/10 600 м
[Cb calv]
+6.9 +5.7 92 +5 +5 1005.2 981.2
03 19.09 З 2 5000 м дымка 10/10 600 м
[Cb calv]
+7.2 +6.5 95 +5 +5 1007.6 983.5 +6.1
06 19.09 З 3 9000 м в посл. час ливневой дождь 10/10 600 м
[Cb calv]
+8.2 +6.8 91 +5 +5 1009.9 985.9 +6.6 0.0
09 19.09 З 3 15 км {ливн. осадки} 9/9 600 м
[Cb calv]
+9.8 +6.9 82 +8 +8 1011.5 987.6
12 19.09 З 4 28 км {ливн. осадки} 8/8 600 м
[Cb calv]
+11.8 +5.5 65 +10 +11 1012.0 988.3
15 19.09 З 1 6000 м слаб. ливневой дождь 10/10 600 м
[Cb cap]
+7.0 +5.9 93 +6 +6 1013.7 989.5 4
18 19.09 З 1 4000 м дымка {ливн. осадки} 10/10 600 м
[Cb calv]
+6.8 +5.7 93 +6 +6 1014.3 990.1 +12.3 7
21 19.09 З 1 4000 м дымка {ливн. осадки} 4/4 600 м
[Sc]
+5.0 +4.1 94 +4 +4 1014.3 989.9
00 20.09 штиль 0 4000 м дымка {ливн. осадки} 10/10 600 м
[Sc]
+5.7 +4.7 93 +5 +5 1014.2 989.9
03 20.09 ЮЗ 1 5000 м слаб. ливневой дождь 10/10 600 м
[Cb cap]
+6.2 +5.7 97 +5 +5 1013.8 989.6 +4.9 0.5
06 20.09 З 1 5000 м дымка {ливн. осадки} 10/10 600 м
[Cb calv]
+7.4 +6.8 96 +6 +6 1013.7 989.6 +4.9 2
09 20.09 З 3 24 км {ливн. осадки} 6/6 600 м
[Cb calv]
+10.6 +4.7 67 +9 +11 1013.4 989.5
12 20.09 СЗ 3 30 км {ливн. осадки} 8/8 600 м
[Cb calv]
+11.3 +1.6 51 +10 +11 1013.0 989.1
15 20.09 штиль 0 29 км 8/8 600 м
[Cb calv]
+10.0 +1.3 55 +10 +10 1013.0 989.1 0.3
18 20.09 СЗ 1 10 км 10/10 600 м
[Cb calv]
+7.3 +4.0 80 +6 +6 1014.6 990.4 +11.6 0.3
21 20.09 СЗ 2 10 км 10/10 600 м
[Cb calv]
+6.4 +4.0 85 +4 +4 1014.9 990.6
00 21.09 З 1 4000 м дымка 4/0
[Ac trans]
+4.8 +3.6 92 +3 +3 1015.2 990.7
03 21.09 СЗ 2 4000 м дымка 8/0
[Ac trans]
+3.5 +2.6 94 0 0 1016.0 991.4 +3.5
06 21.09 С 2 11 км 8/8 600 м
[Cb calv]
+5.1 +3.5 89 +2 +3 1016.8 992.4 +2.9
09 21.09 СЗ 3 28 км 8/8 600 м
[Cb calv]
+8.8 +2.0 62 +7 +8 1016.4 992.3
12 21.09 СЗ 3 30 км 8/6 600 м
[Cb calv Ci fib]
+8.6 +0.5 57 +6 +8 1016.0 991.9
15 21.09 З 2 29 км 8/6 600 м
[Sc Ac trans]
+7.2 +0.1 61 +5 +5 1014.7 990.4
18 21.09 ЮЗ 1 10 км 10/10 600 м
[Cb calv]
+5.6 +0.3 69 +5 +5 1013.1 988.8 +9.3
21 21.09 Ю 1 10 км слаб. ливневой дождь 10/10 600 м
[Cb cap]
+5.0 +2.8 86 +4 +4 1009.8 985.5

 

Местоположение метеостанции Мценск (Орловская область, Россия): широта 53.28 долгота 36.54 высота над уровнем моря 201 м.

В архиве по умолчанию представлена погода в Мценске за последнюю неделю. Архивные данные за месяц целиком и за предыдущие месяцы, начиная с января 2011 года, Вы можете получить, выбрав интересующий диапазон дат из раскрывающегося списка и нажав кнопку "Ввод!".


*Определитесь, кто Вы:
робот инопланетянин человек

Внимание! Время в таблицах - всемирное. Для получения местного времени необходимо прибавить поправку, которая равна 3 ч.

Смотрите также архив погоды в соседних городах и на ближайших метеорологических станциях:

Погода в Болхове (Орловская область, Россия) (38 км)
Погода в Орле (Орловская область, Россия) (53 км)
Погода в Плавске (Тульская область, Россия) (61 км)
Погода в Верховье (Орловская область, Россия) (71 км)
Погода в Суворове (Тульская область, Россия) (95 км)
Погода в Волово (Тульская область, Россия) (102 км)
Погода в Карачеве (Брянская область, Россия) (104 км)
Погода в Ефремове (Тульская область, Россия) (106 км)
Погода в Понырях (Курская область, Россия) (108 км)
Погода в Ливнах (Орловская область, Россия) (118 км)

Пояснения к столбцам:

Ветер - указаны скорость ветра в м/с - средняя за 10 мин, порывы в срок и между сроками (в фигурных скобках) и направление, откуда дует ветер: С - северный, СВ - северо-восточный, В - восточный, ЮВ - юго-восточный, Ю - южный, ЮЗ - юго-западный, З - западный, СЗ - северо-западный.
Видимость - горизонтальная дальность видимости в метрах или километрах. При видимости от 1 до 10 км при отсутствии осадков обычно наблюдается дымка, при ухудшении видимости до 1 км и менее - туман. В сухую погоду видимость может ухудшаться дымом, пылью или мглою.
Явления - указаны атмосферные явления, наблюдавшиеся в срок или в последний час перед сроком; фигурными скобками обозначены явления, наблюдавшиеся между сроками (за 1-3 часа до срока); квадратными скобками обозначены град или гололедные отложения с указанием их диаметра в мм.
Облачность - указаны через наклонную черту общая и нижняя облачность в баллах и высота нижней границы облаков в метрах; квадратными скобками обозначены формы облаков: Ci - перистые, Cs - перисто-слоистые, Cc - перисто-кучевые, Ac - высококучевые, As - высокослоистые, Sc - слоисто-кучевые, Ns - слоисто-дождевые, Cu - кучевые, Cb - кучево-дождевые. Подробнее классификацию облаков см. в Атласе облаков (PDF).
T - Температура воздуха - температура, измеренная на высоте 2 м над землей.
Td - Температура точки росы - температура, при понижении до которой содержащийся в воздухе водяной пар достигнет насыщения.
f - Относительная влажность воздуха - влажноcть воздуха, измеренная на высоте 2 м над землей.
Te - Эффективная температура - температура, которую ощущает одетый по сезону человек в тени. Характеристика душности погоды. При расчете учитывается влияние влажности воздуха и скорости ветра на теплоощущения человека.
Tes - Эффективная температура на солнце - температура, которую ощущает человек, с поправкой на солнечный нагрев. Характеристика знойности погоды. Зависит от высоты солнца над горизонтом, облачности и скорости ветра. Ночью, в пасмурную погоду, а также при ветре 12 м/с и более поправка равна нулю.
P - Атмосферное давление - приведенное к уровню моря атмосферное давление.
Po - Атмосферное давление - измеренное на уровне метеостанции атмосферное давление.
Tmin - Минимальная температура - минимум температуры воздуха на высоте 2 м над землей.
Tmax - Максимальная температура - максимум температуры воздуха на высоте 2 м над землей.
R - Количество осадков - Количество выпавших осадков за период времени, мм. При наведении курсора мыши на число - период времени, за который выпало указанное количество осадков.
R24 - Количество осадков - Количество выпавших осадков за 24 часа, мм.
S - Снежный покров - Высота снежного покрова, см. При наведении курсора мыши на число - состояние снежного покрова и степень покрытия местности в баллах.